Location: Unspecified
(46.0725°N, 13.7344°E)
Time: 00:31:45
(UTC+02:00)

Resurs 1-4 Rocket - Visible Passes

Search period start: 13 June 2024 00:00
Search period end: 23 June 2024 00:00
Orbit: 798 x 814 km, 98.7° (Epoch: 12 June)

Date Brightness Start Highest point End Pass type
(mag) Time Alt. Az. Time Alt. Az. Time Alt. Az.
13 Jun 3.8 02:05:01 10° NE 02:09:13 24° E 02:12:30 14° SE visible
13 Jun 2.5 03:44:11 10° N 03:49:16 51° WNW 03:53:34 14° SW visible
14 Jun 4.3 01:41:13 10° NE 01:44:01 14° E 01:46:50 10° ESE visible
14 Jun 2.1 03:19:09 10° NNE 03:24:27 81° WNW 03:28:21 19° SSW visible
15 Jun 2.4 02:54:17 10° NNE 02:59:31 63° ESE 03:03:09 20° S visible
16 Jun 3.1 02:29:36 10° NNE 02:34:31 38° E 02:37:56 18° SSE visible
16 Jun 3.1 04:09:34 10° N 04:14:12 32° WNW 04:18:50 10° SW visible
17 Jun 3.8 02:05:12 10° NE 02:09:25 24° E 02:12:44 14° SE visible
17 Jun 2.5 03:44:22 10° N 03:49:28 51° WNW 03:53:47 14° SW visible
18 Jun 4.3 01:41:23 10° NE 01:44:13 14° E 01:47:02 10° ESE visible
18 Jun 2.1 03:19:21 10° NNE 03:24:38 81° WNW 03:28:34 18° SSW visible
19 Jun 2.4 02:54:28 10° NNE 02:59:43 63° ESE 03:03:21 20° S visible
20 Jun 3.1 02:29:47 10° NNE 02:34:43 38° E 02:38:08 18° SSE visible
20 Jun 3.1 04:09:45 10° N 04:14:24 32° WNW 04:19:03 10° SW visible
21 Jun 3.8 02:05:23 10° NE 02:09:37 24° E 02:12:55 14° SE visible
21 Jun 2.5 03:44:33 10° N 03:49:40 51° WNW 03:53:59 14° SW visible
22 Jun 4.3 01:41:34 10° NE 01:44:25 14° E 01:47:14 10° ESE visible
22 Jun 2.1 03:19:31 10° NNE 03:24:50 82° WNW 03:28:45 19° SSW visible
